Location: 22
(39.7117°N, 89.5929°W)
Time: 08:17:40
(UTC-05:00)

Transit 2A - Pass Details

Date: 12 August 2024
Orbit: 590 x 961 km, 66.7° (Epoch: 13 September)

Event Time Altitude Azimuth Distance (km) Brightness Sun altitude
Rises 02:27:01 0° 172° (S) 3,180 - -32.1°
Reaches altitude 10° 02:29:41 10° 158° (SSE) 2,325 - -31.9°
Maximum altitude 02:33:58 25° 105° (ESE) 1,632 - -31.6°
Exits shadow 02:34:16 24° 100° (E) 1,643 7.8 -31.5°
Drops below altitude 10° 02:38:34 10° 53° (NE) 2,535 9.4 -31.2°
Sets 02:41:36 0° 41° (NE) 3,534 10.5 -30.9°
